User: anonymous   Login
Location: Bieg
(49.3499°N, 10.3835°E)
Time: 02:52:11
(UTC+00:00)
Language:

CZ-2C R/B - Orbit

View from above orbital plane
View from above orbital plane
View from above satellite
View from above satellite

Ground track
Ground track

The orbit data is extracted from the following two-line orbital elements,

1 28480U 04046B   24194.55276886  .00000308  00000-0  13007-3 0  9998
2 28480  98.1629 137.0774 0141254 143.9069 217.1750 14.26398521 22218
Epoch (UTC): 12 July 2024 13:15:59
Eccentricity: 0.0141254
inclination: 98.1629°
perigee height: 702 km
apogee height: 905 km
right ascension of ascending node: 137.0774°
argument of perigee: 143.9069°
revolutions per day: 14.26398521
mean anomaly at epoch: 217.1750°
orbit number at epoch: 2221

The dashed part of the orbit path shows where the satellite is in the earth's shadow,  

DLR